Date,TemperatureHighF,TemperatureAvgF,TemperatureLowF,DewpointHighF,DewpointAvgF,DewpointLowF,HumidityHigh,HumidityAvg,HumidityLow,PressureMaxIn,PressureMinIn,WindSpeedMaxMPH,WindSpeedAvgMPH,GustSpeedMaxMPH,PrecipitationSumIn
2013-8-1,82.7,80.2,77.1,77.4,76.0,73.6,97,88,74,30.05,29.94,2,2,2,0.27
2013-8-2,95.3,82.3,78.9,77.4,75.4,71.7,95,81,51,30.03,29.93,9,2,9,0.01
2013-8-3,83.6,83.6,83.6,71.9,71.9,71.9,68,68,68,30.09,29.99,3,3,3,0.01
2013-8-4,83.6,83.6,83.6,71.9,71.9,71.9,68,68,68,30.07,29.96,3,3,3,0.01
2013-8-5,83.6,83.6,83.6,71.9,71.9,71.9,68,68,68,30.01,29.89,3,3,3,0.01
2013-8-6,83.6,83.6,83.6,71.9,71.9,71.9,68,68,68,29.98,29.88,3,3,3,0.01
2013-8-7,83.6,83.6,83.6,71.9,71.9,71.9,68,68,68,29.97,29.90,3,3,3,0.01
2013-8-8,83.6,83.6,83.6,71.9,71.9,71.9,68,68,68,30.03,29.93,3,3,3,0.01
2013-8-9,83.6,83.6,83.6,71.9,71.9,71.9,68,68,68,30.06,29.97,3,3,3,0.01
2013-8-10,83.6,83.6,83.6,71.9,71.9,71.9,68,68,68,30.12,30.02,3,3,3,0.01
2013-8-11,83.6,83.6,83.6,71.9,71.9,71.9,68,68,68,30.15,30.04,3,3,3,0.01
2013-8-12,83.6,82.5,81.9,77.4,75.3,71.9,86,79,68,30.13,29.97,3,1,3,0.01
2013-8-13,81.9,81.9,81.9,77.4,77.4,77.4,86,86,86,30.04,29.91,0,0,1,0.01
2013-8-14,88.1,82.3,81.0,77.4,76.0,22.0,86,82,61,30.00,29.88,8,1,8,0.09
2013-8-15,82.1,64.5,0.0,75.5,74.6,72.7,95,74,73,30.03,29.90,2,0,2,0.09
2013-8-16,77.6,77.6,77.6,75.5,75.5,75.5,93,93,93,30.04,29.95,0,0,0,0.00
2013-8-17,77.6,77.5,76.2,75.5,75.4,73.1,93,93,90,30.09,29.96,6,0,6,0.18
2013-8-18,76.2,76.2,76.2,73.1,73.1,73.1,90,90,90,30.10,29.99,4,4,5,0.18
2013-8-19,76.2,76.2,76.2,73.1,73.1,73.1,90,90,90,30.08,29.95,4,4,5,0.18
2013-8-20,76.2,76.2,76.2,73.1,73.1,73.1,90,90,90,30.09,29.97,4,4,5,0.18
2013-8-21,76.2,76.2,76.2,73.1,73.1,73.1,90,90,90,30.11,30.02,4,4,5,0.18
2013-8-22,76.2,76.2,76.2,73.1,73.1,73.1,90,90,90,30.09,29.99,4,4,5,0.18
2013-8-23,76.2,76.2,76.2,73.1,73.1,73.1,90,90,90,30.03,29.94,4,4,5,0.18
2013-8-24,76.2,76.2,76.2,73.1,73.1,73.1,90,90,90,30.13,30.00,4,4,5,0.18
2013-8-25,76.2,76.2,76.2,73.1,73.1,73.1,90,90,90,30.17,30.08,4,4,5,0.18
2013-8-26,88.8,77.5,76.2,75.4,73.1,72.1,90,87,61,30.15,30.02,15,5,15,0.18
2013-8-27,92.9,81.0,77.8,73.1,72.4,67.9,79,75,45,30.08,29.97,14,4,14,0.07
2013-8-28,101.6,82.8,69.7,76.1,70.1,66.2,97,69,37,30.06,29.95,9,2,9,0.00
2013-8-29,77.3,73.0,70.1,75.8,71.0,68.9,97,93,86,30.03,30.00,1,0,2,0.00